This is the latest recevied weather packets stored in our database for station/object KD0SBN-3. If no packets are shown the sender has not sent any weather packets the latest 10 day(s).
| Time | Temp. | Humidity | Pressure | Rain* | Wind** | Luminosity | Snow |
|---|---|---|---|---|---|---|---|
| 1777514285 | 4.44° C | 69% | 1025.7 hPa | 0 mm | - | 1 W/m² | - |
| 1777513980 | 4.44° C | 68% | 1025.4 hPa | 0 mm | - | 1 W/m² | - |
| 1777513678 | 4.44° C | 67% | 1025.5 hPa | 0 mm | - | 2 W/m² | - |
| 1777513375 | 5° C | 67% | 1025.1 hPa | 0 mm | - | 3 W/m² | - |
| 1777513071 | 5° C | 67% | 1025.1 hPa | 0 mm | - | 3 W/m² | - |
| 1777512767 | 5° C | 66% | 1025 hPa | 0 mm | - | 6 W/m² | - |
| 1777512464 | 5° C | 65% | 1024.7 hPa | 0 mm | - | 8 W/m² | - |
| 1777512160 | 5.56° C | 61% | 1024.7 hPa | 0 mm | - | 7 W/m² | - |
| 1777511858 | 5.56° C | 57% | 1024.6 hPa | 0 mm | - | 14 W/m² | - |
| 1777511556 | 5.56° C | 57% | 1024.9 hPa | 0 mm | - | 18 W/m² | - |
| 1777511254 | 6.11° C | 57% | 1024.5 hPa | 0 mm | - | 17 W/m² | - |
| 1777510954 | 6.11° C | 56% | 1024.5 hPa | 0 mm | - | 17 W/m² | - |
| 1777510651 | 6.11° C | 56% | 1024.5 hPa | 0 mm | - | 17 W/m² | - |
| 1777510347 | 6.67° C | 56% | 1024.1 hPa | 0 mm | - | 22 W/m² | - |
| 1777510043 | 6.67° C | 55% | 1024.2 hPa | 0 mm | - | 28 W/m² | - |
| 1777509740 | 6.67° C | 55% | 1024.3 hPa | 0 mm | - | 31 W/m² | - |
| 1777509435 | 6.67° C | 55% | 1024 hPa | 0 mm | - | 38 W/m² | - |
| 1777509134 | 6.67° C | 55% | 1024 hPa | 0 mm | - | 54 W/m² | - |
| 1777508830 | 6.67° C | 55% | 1024.3 hPa | 0 mm | - | 52 W/m² | - |
| 1777508527 | 7.22° C | 54% | 1024 hPa | 0 mm | - | 68 W/m² | - |
| 1777508224 | 7.22° C | 54% | 1023.8 hPa | 0 mm | - | 83 W/m² | - |
| 1777507921 | 7.22° C | 54% | 1024 hPa | 0 mm | - | 85 W/m² | - |
| 1777507618 | 6.67° C | 55% | 1024 hPa | 0 mm | - | 95 W/m² | - |
| 1777507315 | 6.67° C | 55% | 1023.7 hPa | 0 mm | - | 85 W/m² | - |
| 1777507012 | 6.67° C | 55% | 1024 hPa | 0 mm | - | 99 W/m² | - |
* Rain latest hour (hover to see other rain measurements)
** Current wind speed in m/s (hover to see current wind gust speed)